Location: Standeford and Andreas Observatories
(44.1397°N, 93.9969°W)
Time: 15:43:37
(UTC-06:00)

Cosmos 1500 Rocket - Visible Passes

Search period start: 18 December 2014 00:00
Search period end: 28 December 2014 00:00
Orbit: 605 x 633 km, 82.5° (Epoch: 18 December)

Date Brightness Start Highest point End Pass type
(mag) Time Alt. Az. Time Alt. Az. Time Alt. Az.
18 Dec 6.4 05:40:15 10° NE 05:42:39 14° ENE 05:45:02 10° E visible
19 Dec 5.8 05:56:35 10° NNE 06:00:13 24° ENE 06:03:52 10° SE visible
20 Dec 4.8 06:13:27 10° N 06:17:42 42° ENE 06:21:56 10° SSE visible
21 Dec 3.7 06:30:35 10° N 06:35:04 78° E 06:39:32 10° SSE visible
22 Dec 6.5 05:11:32 10° NNE 05:14:05 15° ENE 05:16:38 10° ESE visible
22 Dec 3.7 06:47:58 10° NNW 06:52:20 56° W 06:56:42 10° S visible
22 Dec 5.9 19:20:28 10° S 19:21:02 14° S 19:21:02 14° S visible
23 Dec 5.7 05:27:56 10° NNE 05:31:39 25° ENE 05:35:22 10° SE visible
23 Dec 4.4 07:05:36 10° NNW 07:09:31 31° W 07:13:26 10° SSW visible
23 Dec 5.7 19:37:54 10° SSW 19:39:23 20° SSW 19:39:23 20° SSW visible
24 Dec 4.7 05:44:49 10° N 05:49:07 44° ENE 05:53:23 10° SSE visible
24 Dec 4.9 18:18:13 10° SE 18:20:30 22° ESE 18:20:30 22° ESE visible
24 Dec 5.9 19:55:47 10° SW 19:57:43 21° WSW 19:57:43 21° WSW visible
25 Dec 3.6 06:01:59 10° N 06:06:29 82° E 06:10:57 10° S visible
25 Dec 3.7 18:34:47 10° SSE 18:38:49 47° E 18:38:49 47° E visible
25 Dec 6.4 20:14:17 10° WSW 20:16:03 15° W 20:16:03 15° W visible
26 Dec 6.4 04:42:49 10° NNE 04:45:31 16° ENE 04:48:13 10° ESE visible
26 Dec 3.7 06:19:26 10° NNW 06:23:45 54° W 06:28:05 10° S visible
26 Dec 3.4 18:51:50 10° S 18:56:11 89° E 18:57:07 56° N visible
27 Dec 5.6 05:00:12 15° NNE 05:03:05 26° ENE 05:06:51 10° SE visible
27 Dec 4.4 06:37:25 12° NNW 06:40:55 30° W 06:44:47 10° SSW visible
27 Dec 5.2 17:33:35 10° ESE 17:36:07 15° E 17:38:08 12° NE visible
27 Dec 4.4 19:09:18 10° SSW 19:13:31 49° WNW 19:15:20 30° NNW visible
